Regional Weather Roundup
Issued by NWS

Home | Current Version | Previous Version | Graphics & Text | Print | Product List | Glossary On
Versions: 1 2 3 4 5 6 7 8 9 10 11 12 13 14 15 16 17 18 19 20 21 22 23 24 25 26 27 28 29 30 31 32 33 34 35 36 37 38 39 40 41 42 43 44 45 46 47 48 49 50
000
ASUS43 KOAX 212310
RWRNE

WEATHER ROUNDUP FOR NEBRASKA
NATIONAL WEATHER SERVICE OMAHA NE
500 PM CST TUE NOV 21 2017

NOTES: SATELLITE DATA IS BEING USED TO AUGMENT CLOUD COVER ABOVE
       12000 FEET.
       "FAIR" INDICATES FEW OR NO CLOUDS BELOW 12,000 FEET WITH NO
       SIGNIFICANT WEATHER AND/OR OBSTRUCTIONS TO VISIBILITY.


NEZ001>004-019>022-054>056-220000-
NEBRASKA PANHANDLE

CITY           SKY/WX    TMP DP  RH WIND       PRES   REMARKS
SCOTTSBLUFF    CLEAR     46  24  42 W3        30.28R
ALLIANCE       CLEAR     41  26  55 N8        30.27S
CHADRON        CLEAR     41  25  53 NW3       30.27F
GORDON         FAIR      37  26  66 CALM      30.27F
KIMBALL        CLEAR     43  26  50 CALM      30.30R
SIDNEY         CLEAR     42  23  46 NW6       30.30R
$$

NEZ057>060-069>072-079>082-220000-
SOUTHWEST NEBRASKA

CITY           SKY/WX    TMP DP  RH WIND       PRES   REMARKS
NORTH PLATTE   CLEAR     39  17  41 NE6       30.33S WCI  35
IMPERIAL       CLEAR     44  25  47 N6        30.32S
LEXINGTON      CLEAR     37  12  36 N8        30.35R WCI  31
MCCOOK         CLEAR     42  21  43 N7        30.34R
OGALLALA       CLEAR     44  26  49 CALM      30.31S
$$

NEZ005>010-023>029-035>040-094-220000-
NORTH CENTRAL NEBRASKA

CITY           SKY/WX    TMP DP  RH WIND       PRES   REMARKS
VALENTINE      CLOUDY    29  12  49 N8        30.34S WCI  21
AINSWORTH      CLOUDY    27   9  47 NW12      30.34S WCI  16
BROKEN BOW     CLEAR     32   9  38 N12       30.34R WCI  23
O`NEILL        CLOUDY    23  13  64 NW9       30.38R WCI  13
ORD            CLEAR     29   9  43 N10       30.35R WCI  20
THEDFORD       CLEAR     35  14  43 N9        30.33S WCI  27
$$

NEZ041-046>049-061>064-073>077-083>087-220000-
SOUTH CENTRAL NEBRASKA

CITY           SKY/WX    TMP DP  RH WIND       PRES   REMARKS
GRAND ISLAND   CLEAR     29  13  51 N12       30.35F WCI  19
AURORA         CLEAR     29  12  48 N13       30.35F WCI  19
HASTINGS       CLEAR     31  10  41 N12       30.35R WCI  22
HEBRON         CLEAR     33  12  41 N15       30.36R WCI  23
HOLDREGE       CLEAR     36  13  40 N10       30.34S WCI  28
KEARNEY        CLEAR     33   7  33 N12       30.35R WCI  24
YORK           CLEAR     28  14  54 N10       30.35S WCI  19
$$

NEZ011>018-030>034-042>045-220000-
NORTHEAST NEBRASKA

CITY           SKY/WX    TMP DP  RH WIND       PRES   REMARKS
NORFOLK        CLEAR     25  11  55 NW13      30.34R WCI  14
ALBION         CLEAR     27  13  54 NW15      30.36S WCI  16
BLAIR          CLEAR     29  13  50 NW16G24   30.33R WCI  18
COLUMBUS       CLEAR     27  13  55 NW10      30.37R WCI  17
FREMONT        CLEAR     29  12  48 NW10      30.36R WCI  20
TEKAMAH        CLEAR     28  10  46 NW22      30.35R WCI  14
WAYNE          CLEAR     27   7  44 N10       30.36R WCI  17
$$

NEZ050>053-065>068-078-088>093-220000-
SOUTHEAST NEBRASKA

CITY           SKY/WX    TMP DP  RH WIND       PRES   REMARKS
LINCOLN        CLEAR     31  12  45 N18       30.37R WCI  19
OMAHA EPPLEY   CLEAR     30  11  45 NW17      30.34R WCI  18
BEATRICE       CLEAR     32  14  47 N12       30.35R WCI  23
FALLS CITY       N/A     33  13  43 N16G23    30.32R WCI  23
NEBRASKA CITY  CLEAR     31  14  50 N15       30.33R WCI  20
PLATTSMOUTH    CLEAR     30  14  50 NW15      30.34R WCI  19
$$

NEZ044-045-051>053-067-220000-
OMAHA AREA

CITY           SKY/WX    TMP DP  RH WIND       PRES   REMARKS
OMAHA EPPLEY   CLEAR     30  11  45 NW17      30.34R WCI  18
BLAIR          CLEAR     29  13  50 NW16G24   30.33R WCI  18
FREMONT        CLEAR     29  12  48 NW10      30.36R WCI  20
MILLARD        CLEAR     32  13  45 NW8G22    30.35R WCI  25
OFFUTT AFB     CLEAR     30  11  43 NW18      30.34R WCI  18
PLATTSMOUTH    CLEAR     30  14  50 NW15      30.34R WCI  19
WAHOO          FAIR      30  12  47 N15G22    30.35R WCI  19
$$




USA.gov is the U.S. government's official web portal to all federal, state and local government web resources and services.